Regional Weather Roundup
Issued by NWS

Home | Current Version | Previous Version | Text Only | Print | Product List | Glossary On
Versions: 1 2 3 4 5 6 7 8 9 10 11 12 13 14 15 16 17 18 19 20 21 22 23 24 25 26 27 28 29 30 31 32 33 34 35 36 37 38 39 40 41 42 43 44 45 46 47 48 49 50
000
ASUS45 KABQ 281310
RWRNM
WEATHER ROUNDUP FOR NEW MEXICO
NATIONAL WEATHER SERVICE ALBUQUERQUE NM
700 AM MDT SAT MAR 28 2015

NOTE: "FAIR" MEANS FEW OR NO CLOUDS BELOW 12,000 FEET AGL WITH NO
       SIGNIFICANT WEATHER OR OBSTRUCTIONS TO VISION.

      THIS PRODUCT IS RELEASED AS TWO VERSIONS.  ONE VERSION NEAR
      THE TOP OF THE HOUR CONTAINING PRELIMINARY DATA FROM ALBUQUERQUE
      AND OTHER STATIONS.  A FINAL VERSION WITH ADDITIONAL DATA IS
      ISSUED ABOUT 10 MINUTES AFTER THE HOUR.

NMZ501-503-504-510>518-281400-
NORTHWEST PLATEAU/NORTHCENTRAL MOUNTAINS

CITY           SKY/WX    TMP DP  RH WIND       PRES   REMARKS
FARMINGTON     CLEAR     33  21  61 E6        30.24R WCI  28
LOS ALAMOS     CLEAR     47  20  34 S3        30.29R
SANTA FE       CLEAR     38  21  50 N8        30.25R WCI  32
TAOS           PTCLDY    32  19  59 N5        30.30R WCI  27
ANGEL FIRE     FAIR      21  19  91 CALM      30.34R

$$
NMZ402-403-502-505>509-281400-
WESTCENTRAL MOUNTAINS/SOUTHWEST MOUNTAINS

CITY           SKY/WX    TMP DP  RH WIND       PRES   REMARKS
GALLUP         CLEAR     30  14  51 NE5       30.31R WCI  25
GRANTS         CLEAR     26  17  70 CALM      30.32S
SILVER CITY    CLEAR     45  16  31 NW12      30.25R

$$
NMZ407-409-411-412-281400-
SOUTHERN DESERTS

CITY           SKY/WX    TMP DP  RH WIND       PRES   REMARKS
LORDSBURG      FAIR      36  18  48 CALM      30.20R
DEMING         CLEAR     42  19  39 W6        30.19R
LAS CRUCES     PTCLDY    44  14  29 N5        30.20R
HOLLOMAN AFB   PTCLDY    42  18  37 NE5       30.16R
ALAMOGORDO     PTCLDY    46  18  31 N7        30.18R
T OR C         CLEAR     54  13  19 N9        30.20R

$$
NMZ519>523-281400-
CENTRAL VALLEYS/CENTRAL HIGHLANDS

CITY           SKY/WX    TMP DP  RH WIND       PRES   REMARKS
ALBUQUERQUE    PTCLDY    48  20  32 W7        30.24R
DOUBLE EAGLE   CLEAR     43  18  36 CALM      30.25R
MORIARTY ARPT  FAIR      29  17  61 NE9       30.26R WCI  21
CLINES CORNERS CLEAR     39  17  41 NW13      30.25R WCI  31
BELEN          FAIR      39  20  46 CALM      30.23R
SOCORRO        FAIR      44  17  34 CALM      30.22R

$$
NMZ524>526-539-540-281400-
SOUTHCENTRAL MOUNTAINS

CITY           SKY/WX    TMP DP  RH WIND       PRES   REMARKS
RUIDOSO        CLEAR     48  14  25 W10       30.29R

$$
NMZ527>531-281400-
NORTHEAST HIGHLANDS/NORTHEAST PLAINS

CITY           SKY/WX    TMP DP  RH WIND       PRES   REMARKS
LAS VEGAS      CLEAR     42  20  41 N6        30.24R
RATON          PTCLDY    32  24  72 NE8       30.20R WCI  25
CLAYTON        CLEAR     51  27  39 W14       30.10S

$$
NMZ532>537-281400-
EASTCENTRAL PLAINS

CITY           SKY/WX    TMP DP  RH WIND       PRES   REMARKS
TUCUMCARI      CLEAR     42  29  59 W9        30.09R
CANNON AFB     CLEAR     47  29  49 NW15      30.08R
CLOVIS AIRPORT CLEAR     46  30  53 NW13      30.06S

$$
NMZ028-029-538-281400-
SOUTHEAST PLAINS

CITY           SKY/WX    TMP DP  RH WIND       PRES   REMARKS
ROSWELL        CLEAR     44  32  62 N6        30.11R
ARTESIA        CLEAR     43  27  52 NW6       30.11R
CARLSBAD       CLEAR     40  32  73 CALM      30.07R
HOBBS          CLEAR     43  32  65 SW9       30.09S


$$


USA.gov is the U.S. government's official web portal to all federal, state and local government web resources and services.